Skip Page Navigation
NASA JPL Caltech
NASA Logo - Jet Propulsion Laboratory + View the NASA Portal
+ Center for Near-Earth Object Studies
JPL Home Earth Solar System Stars & Galaxies Technology
JPL Solar System Dynamics
BODIES ORBITS EPHEMERIDES TOOLS PHYSICAL DATA DISCOVERY FAQ SITE MAP
JPL Small-Body Database Browser
Search: [ help ]  
15756 (1992 ET9)
Classification: Main-belt Asteroid          SPK-ID: 2015756
Ephemeris | Orbit Diagram | Orbital Elements | Mission Design | Physical Parameters | Discovery Circumstances ]

[ show orbit diagram ]
Orbital Elements at Epoch 2459200.5 (2020-Dec-17.0) TDB
Reference: JPL 31 (heliocentric ecliptic J2000)
 Element Value Uncertainty (1-sigma)   Units 
e .1444166769393886 2.2929e-08  
a 2.305486064355758 7.1303e-09 au
q 1.97253542821143 5.2501e-08 au
i 6.42170126677442 1.127e-06 deg
node 153.9953626672995 8.4556e-06 deg
peri 159.4143934680659 1.029e-05 deg
M 290.8353763471352 5.0048e-06 deg
tp 2459446.153918684421
(2021-Aug-19.65391868)
1.8667e-05 TDB
period 1278.622018826363
3.50
5.9317e-06
1.624e-08
d
yr
n .2815531053738939 1.3062e-09 deg/d
Q 2.638436700500086 8.1601e-09 au
  Orbit Determination Parameters
   # obs. used (total)      2114  
   data-arc span      24611 days (67.38 yr)  
   first obs. used      1953-01-09  
   last obs. used      2020-05-28  
   planetary ephem.      DE441  
   SB-pert. ephem.      SB441-N16  
   condition code      0  
   norm. resid. RMS      .52383  
   source      ORB  
   producer      Otto Matic  
   solution date      2021-Apr-13 01:08:10  

Additional Information
 Earth MOID = .958301 au 
 Jupiter MOID = 2.63142 au 
 T_jup = 3.566 
[ show covariance matrix ]

Ephemeris | Orbit Diagram | Orbital Elements | Mission Design | Physical Parameters | Discovery Circumstances ]

Physical Parameter Table
Parameter Symbol Value Units Sigma Reference Notes
absolute magnitude H 14.36   n/a MPCxxxxx  
diameter diameter 3.179 km 0.087 urn:nasa:pds:neowise_diameters_albedos::2.0[mainbelt] (http://adsabs.harvard.edu/abs/2011ApJ...741...68M)  
geometric albedo albedo 0.400   0.085 urn:nasa:pds:neowise_diameters_albedos::2.0[mainbelt] (http://adsabs.harvard.edu/abs/2011ApJ...741...68M)  

15756 (1992 ET9)          Discovered 1992-Mar-02 by UESAC at La Silla
Reference: 20000726/Numbers.arcLast Updated: 2004-04-19

Alternate Designations
 1992 ET9 = 1999 AZ25 
Ephemeris | Orbit Diagram | Orbital Elements | Mission Design | Physical Parameters | Discovery Circumstances ]
ABOUT SSD CREDITS/AWARDS PRIVACY/COPYRIGHT GLOSSARY LINKS
FirstGov 2021-May-09 20:37 UT
(server date/time)  
NASA Home Page
Site Manager:   Ryan S. Park
Webmaster  Alan B. Chamberlin